Погода в Бутове

Россия / Ивановская область     57°08′34″N   40°26′28″E
темп.,
°C
ветер,
м/с
пор.,
м/с
влажн.,
%
обл.,
%
осадки,
мм/ч
давл.,
гПа
погр.,
м
6 марта, сб
сб600:00−15з33870 0.0 101324
03:00−15зюз359212 0.0 101475
06:00−15з349760 0.0 101474
09:00−14зсз349576 0.1 1015160
12:00−9зсз348471 0.0 1015433
15:00−8зсз458377 0.0 1014887
18:00−11зюз239199 0.1 101321
21:00−14юз349357 0.1 101337
7 марта, вс
вс700:00−14ююз47940 0.0 1010104
03:00−13ю512915 0.0 1007215
06:00−10ююз71392100 0.1 1003511
09:00−8ююз71393100 0.7 999705
12:00−5ююз81293100 1.0 995966
15:00−4ю71194100 2.2 990895
18:00−5ююв51195100 1.2 988594
21:00−6зсз0397100 1.9 988173
8 марта, пн
пн800:00−7зсз81493100 0.9 989682
03:00−10з61291100 1.1 990381
06:00−12з5894100 0.4 991264
09:00−11зсз5894100 0.4 992309
12:00−6ссз4693100 0.4 994611
15:00−7ссз6892100 1.0 997719
18:00−9ссз51093100 0.4 1000582
21:00−11ссз5109499 0.6 1003431
9 марта, вт
вт900:00−12ссз51094100 0.1 1006416
03:00−14ссз51094100 0.3 1008410
06:00−18сз5997100 0.1 1011261
09:00−20ссз479696 0.1 1013260
12:00−17сз469388 0.0 1014388
15:00−15сз469093 0.0 1015509
18:00−19сз369696 0.0 1016105
21:00−23сз349866 0.0 101842
10 марта, ср
ср1000:00−24ссз2310060 0.0 101820
03:00−26ссз2310052 0.0 101919
06:00−27ссз2310028 0.0 101920
09:00−24с249837 0.0 1020147
12:00−19ссв228883 0.0 1019389
15:00−17с218290 0.0 1018444
18:00−22св129454 0.0 101820
21:00−24вюв229445 0.0 101820